LiveATC.Net - Listen to live air traffic control over the Internet!


ICAO: KFHR  IATA: FHR   Airport: Friday Harbor Airport
City: Friday Harbor   State/Province: Washington
Country: United States   Continent: North America
KFHR METAR Weather: KFHR 272153Z AUTO 15009KT 10SM BKN023 BKN035 OVC080 14/11 A2972 RMK AO2 RAB2058E19B41E50 SLP065 P0000 T01390111 TSNO $
KFHR Flight Activity (FlightAware)
KFHR Webcam:  (Airport Webcams) 
KFHR Airport Info   (iFlightPlanner)
KFHR VFR Sectional Chart   (iFlightPlanner) 
KFHR IFR Low Chart   (iFlightPlanner) 

KFHR CTAF
Feed Status: DOWN
Last heard on: 2021-09-25 20:34:38 (2 days 1 hours 44 minutes ago)
Archive Access: KFHR CTAF
FacilityFrequency
KFHR/San Juan Islands CTAF128.250

NOTICE

Unauthorized use prohibited. See LiveATC.net Terms of Service


Airport/ARTCC Code
Frequency Search
(e.g., 124.400, 128.75)
Site-wide search
 


Browse Feeds
Top 50 Feeds
HF Oceanic Feeds
Coverage Map
Bad Weather Areas

LiveATC FAQ
Offer LiveATC feed
Contact LiveATC.net
Press Inquiries

LiveATC on iPhone
LiveATC on Android

Windows Phone
Windows 8/10

LiveATC Mobile
(Mobile browser)

ATC Audio Archives
Interesting Recordings

LiveATC Forums


Home Page
About LiveATC.net
Make a Donation
Terms of Use
Privacy Policy

Canadian Air Freqs

AIRMETs/SIGMETs

FAA Airport Status
NAS Status
Arrival Demand


Server Software By:
Icecast.org
Liquidsoap